TimePDT,TemperatureF,Dew PointF,Humidity,Sea Level PressureIn,VisibilityMPH,Wind Direction,Wind SpeedMPH,Gust SpeedMPH,PrecipitationIn,Events,Conditions,WindDirDegrees,DateUTC
1:53 AM,51.1,37.0,59,30.04,10.0,Calm,Calm,-,N/A,,Clear,0,2012-10-09 08:53:00
2:53 AM,50.0,37.0,61,30.04,10.0,Calm,Calm,-,N/A,,Partly Cloudy,0,2012-10-09 09:53:00
3:53 AM,50.0,37.0,61,30.04,10.0,SSW,5.8,-,N/A,,Partly Cloudy,210,2012-10-09 10:53:00
4:53 AM,50.0,37.9,63,30.03,10.0,Calm,Calm,-,0.00,,Mostly Cloudy,0,2012-10-09 11:53:00
5:53 AM,50.0,37.0,61,30.04,10.0,NE,3.5,-,N/A,,Partly Cloudy,50,2012-10-09 12:53:00
6:53 AM,50.0,37.9,63,30.06,10.0,WNW,3.5,-,N/A,,Clear,290,2012-10-09 13:53:00
7:53 AM,48.0,39.0,71,30.07,10.0,Calm,Calm,-,N/A,,Clear,0,2012-10-09 14:53:00
8:53 AM,54.0,39.0,57,30.08,10.0,Calm,Calm,-,N/A,,Clear,0,2012-10-09 15:53:00
9:53 AM,60.1,41.0,49,30.08,10.0,Calm,Calm,-,N/A,,Clear,0,2012-10-09 16:53:00
10:53 AM,61.0,41.0,48,30.07,10.0,WNW,3.5,-,N/A,,Clear,300,2012-10-09 17:53:00
11:53 AM,64.9,41.0,42,30.05,10.0,Calm,Calm,-,N/A,,Clear,0,2012-10-09 18:53:00
12:53 PM,68.0,37.9,33,30.02,10.0,NNE,3.5,-,N/A,,Clear,20,2012-10-09 19:53:00
1:53 PM,69.1,37.9,32,29.99,10.0,South,5.8,-,N/A,,Clear,180,2012-10-09 20:53:00
2:53 PM,71.1,37.0,29,29.97,10.0,SW,3.5,-,N/A,,Clear,230,2012-10-09 21:53:00
3:53 PM,72.0,35.1,26,29.96,10.0,SSW,5.8,-,N/A,,Clear,200,2012-10-09 22:53:00
4:53 PM,73.0,34.0,24,29.95,10.0,South,4.6,-,N/A,,Clear,180,2012-10-09 23:53:00
5:53 PM,72.0,34.0,25,29.95,10.0,Calm,Calm,-,N/A,,Clear,0,2012-10-10 00:53:00
6:53 PM,63.0,35.1,35,29.96,10.0,NW,4.6,-,N/A,,Clear,320,2012-10-10 01:53:00
7:53 PM,57.9,32.0,37,29.99,10.0,NE,8.1,-,N/A,,Clear,40,2012-10-10 02:53:00
8:53 PM,57.9,33.1,39,29.99,10.0,NNE,6.9,-,N/A,,Clear,30,2012-10-10 03:53:00
9:53 PM,54.0,33.1,45,30.00,10.0,Variable,3.5,-,N/A,,Clear,0,2012-10-10 04:53:00
10:53 PM,53.1,32.0,45,30.01,10.0,Calm,Calm,-,N/A,,Clear,0,2012-10-10 05:53:00
11:53 PM,52.0,30.0,43,30.01,10.0,Calm,Calm,-,N/A,,Clear,0,2012-10-10 06:53:00